Regional Weather Roundup
Issued by NWS

Home | Current Version | Previous Version | Graphics & Text | Print | Product List | Glossary On
Versions: 1 2 3 4 5 6 7 8 9 10 11 12 13 14 15 16 17 18 19 20 21 22 23 24 25 26 27 28 29 30 31 32 33 34 35 36 37 38 39 40 41 42 43 44 45 46 47 48 49 50
954
ASUS44 KLIX 172301
RWRLA
LOUISIANA WEATHER ROUNDUP
NATIONAL WEATHER SERVICE NEW ORLEANS LA
600 PM CDT THU APR 17 2014

NOTE: "FAIR" INDICATES FEW OR NO CLOUDS BELOW 12,000 FEET WITH NO
      SIGNIFICANT WEATHER AND/OR OBSTRUCTIONS TO VISIBILITY.
      SKY/WX - SKY CONDITION AND SIGNIFICANT WEATHER.
      TMP - AIR TEMPERATURE.    DP   - DEWPOINT TEMPERATURE.
      RH  - RELATIVE HUMIDITY.  PRES - PRESSURE.
      HX  - HEAT INDEX.         WCI  - WIND CHILL INDEX.

*  THESE STATIONS ARE NOT NWS OR FAA STATIONS AND ARE NOT UNDER
   NWS QUALITY CONTROL.

LAZ040-048-061>063-065-066-069-180000-
SOUTHEAST LOUISIANA

CITY           SKY/WX    TMP DP  RH WIND       PRES   REMARKS
N.O. AUDUBON   NOT AVBL
N.O. INTL ARPT CLOUDY    64  60  87 E10       30.14S
N.O. LAKEFRONT CLOUDY    63  60  90 E15       30.15S
N.O. DOWNTOWN* CLOUDY    63  55  77 E7        30.15R
SLIDELL        CLOUDY    62  59  90 E7        30.13F
BATON ROUGE    CLOUDY    65  57  75 E8        30.13R
BOOTHVILLE     LGT RAIN  63  61  93 E10       30.13F FOG
BELLE CHASSE   CLOUDY    64  58  80 E10       30.13F
BOGALUSA*        N/A     67  57  70 E7        30.16S
GALLIANO*      NOT AVBL
NEW ROADS*     NOT AVBL
GONZALES*      CLOUDY    64  60  88 E5        30.14R
HAMMOND*       NOT AVBL
HOUMA*         CLOUDY    64  61  88 NE9       30.12S HAZE
PORT FOURCHON* PTCLDY    66  64  94 E13       30.11F FOG

$$

LAZ041-044-053-054-180000-
SOUTHWEST LOUISIANA

CITY           SKY/WX    TMP DP  RH WIND       PRES   REMARKS
LAKE CHARLES   CLOUDY    64  54  69 E8        30.12R
LAFAYETTE      CLOUDY    64  57  78 E3        30.12R
PATTERSON      CLOUDY    63  59  88 NE12        N/A
SALT POINT       N/A     67  60  78 VRB3      30.09R
NEW IBERIA     CLOUDY    65  57  75 E10       30.12R
CHENAULT AIRPK CLOUDY    64  54  68 NE7       30.13R

$$

LAZ027-028-180000-
CENTRAL LOUISIANA

CITY           SKY/WX    TMP DP  RH WIND       PRES   REMARKS
FORT POLK      CLOUDY    60  52  74 NE3       30.13S
ALEXANDRIA INT CLOUDY    63  54  72 CALM      30.13S
ALEXANDRIA     CLOUDY    67  52  58 CALM      30.15R

$$

LAZ001-002-180000-
NORTHWEST LOUISIANA

CITY           SKY/WX    TMP DP  RH WIND       PRES   REMARKS
SHREVEPORT     MOSUNNY   68  48  48 E10       30.12F
BARKSDALE AFB  SUNNY     68  48  47 E6        30.13F
DTN SHREVEPORT SUNNY     66  48  52 VRB7      30.13F

$$

LAZ014-016-180000-
NORTHEAST LOUISIANA

CITY           SKY/WX    TMP DP  RH WIND       PRES   REMARKS
MONROE         CLOUDY    62  55  77 CALM      30.16R
TALLULAH       CLOUDY    67  54  63 E9        30.16S

$$




USA.gov is the U.S. government's official web portal to all federal, state and local government web resources and services.